Location: Strawberry
(45.6646°N, 111.9596°W)
Time: 16:33:11
(UTC+00:00)

SR - Pass Details

Date: 12 October 2022
Orbit: 577 x 874 km, 66.7° (Epoch: 05 December)

Event Time Altitude Azimuth Distance (km) Brightness Sun altitude
Rises 04:11:27 0° 263° (W) 3,464 ? -35.1°
Reaches altitude 10° 04:14:41 10° 280° (W) 2,525 ? -35.6°
Maximum altitude 04:18:52 20° 325° (NW) 1,912 ? -36.3°
Enters shadow 04:22:56 10° 11° (N) 2,462 ? -36.9°
